Regional Weather Roundup
Issued by NWS

Home | Current Version | Previous Version | Graphics & Text | Print | Product List | Glossary On
Versions: 1 2 3 4 5 6 7 8 9 10 11 12 13 14 15 16 17 18 19 20 21 22 23 24 25 26 27 28 29 30 31 32 33 34 35 36 37 38 39 40 41 42 43 44 45 46 47 48 49 50
000
ASUS43 KLOT 280800
RWRIL

ILLINOIS REGIONAL WEATHER ROUNDUP
NATIONAL WEATHER SERVICE CHICAGO/ROMEOVILLE IL
200 AM CST FRI NOV 28 2014

NOTE: "FAIR" INDICATES FEW OR NO CLOUDS BELOW 12,000 FEET WITH NO
SIGNIFICANT WEATHER AND/OR OBSTRUCTIONS TO VISIBILITY.

* THESE STATIONS ARE NOT UNDER NWS QUALITY CONTROL. THEY ALSO MAY NOT
  REPORT WEATHER SUCH AS PRECIPITATION OR FOG.

ILZ001-002-007-009-015-016-024-280900-
NORTHWEST ILLINOIS

CITY           SKY/WX    TMP DP  RH WIND       PRES   REMARKS
MOLINE         FLURRIES  15   8  73 SE7       30.34F WCI   5
STERLING*      MOCLDY    14   7  73 CALM      30.35F
$$

ILZ003-004-008-010-011-017-018-280900-
NORTH CENTRAL ILLINOIS

CITY           SKY/WX    TMP DP  RH WIND       PRES   REMARKS
ROCKFORD       CLOUDY    14   5  67 CALM      30.38F
$$

ILZ005-006-012>014-019>023-280900-
NORTHEAST ILLINOIS

CITY           SKY/WX    TMP DP  RH WIND       PRES   REMARKS
CHICAGO-OHARE  MOCLDY    19  11  70 CALM      30.37R
CHICAGO-MIDWAY CLOUDY    21  11  65 SW5       30.38R WCI  15
AURORA         CLOUDY    15   8  73 CALM      30.37S
WAUKEGAN       MOCLDY    14  10  84 CALM      30.36R
DUPAGE AIRPORT MOCLDY    16  13  88 W3        30.36R
WHEELING       CLOUDY    18  10  71 CALM      30.38S
NORTHERLY ISL    N/A     21   9  59 SW6         N/A  WCI  14
$$

LMZ740>746-280900-
SOUTHERN LAKE MICHIGAN

STATION/POSITION SKY/WX   TEMP    WIND        PRES    VSBY  WAVE
                          AIR SEA DIR/SP/G                  HT/PER
                          (F)     (DEG/KT/KT) (MB)    (MI)  (FT/S)
SOUTHERN BUOY              23 42  240/  6/ 10 1028.9F         3/ 7
WAUKEGAN HARBOR            17     300/  3/  4   N/A
HARRISON CRIB              20     290/  1/  2   N/A
BURNHAM HARBOR             21     260/  4       N/A
CALUMET HARBOR             20     260/  2/  3 1026.9S
MICHIGAN CITY              22     170/  6/  7   N/A
$$

ILZ025>027-034>036-040-047-049-050-058-095>099-280900-
WEST-CENTRAL ILLINOIS

CITY           SKY/WX    TMP DP  RH WIND       PRES   REMARKS
QUINCY         MOCLDY    20  13  74 SE8       30.33F WCI  10
$$

ILZ028>032-037-038-041>044-048-051>054-059>061-280900-
CENTRAL ILLINOIS

CITY           SKY/WX    TMP DP  RH WIND       PRES   REMARKS
DECATUR        CLOUDY    18  10  71 CALM      30.40F
PEORIA         CLOUDY    18  10  71 E6        30.37F WCI  10
SPRINGFIELD    MOCLDY    18   9  68 SE6       30.39F WCI  10
TAYLORVILLE    NOT AVBL
$$

ILZ033-039-045-046-055>057-062-063-280900-
EAST-CENTRAL ILLINOIS

CITY           SKY/WX    TMP DP  RH WIND       PRES   REMARKS
CHAMPAIGN      CLOUDY    17  13  84 W3        30.40R
MATTOON        CLOUDY    18   8  65 CALM      30.40S
$$

ILZ079-100>102-280900-
SOUTHWEST ILLINOIS

CITY           SKY/WX    TMP DP  RH WIND       PRES   REMARKS
BELLEVILLE     CLOUDY    23  20  87 E5        30.41S WCI  17
CAHOKIA*       MOCLDY    25  20  81 E7        30.41S WCI  17
$$

ILZ064>066-069>071-074>076-080>082-084>086-088>090-092>094-280900-
SOUTH-CENTRAL ILLINOIS

CITY           SKY/WX    TMP DP  RH WIND       PRES   REMARKS
CARBONDALE     PTCLDY    26  23  88 E5        30.42F WCI  20
MT. VERNON     CLOUDY    25  18  74 CALM      30.43S
$$

ILZ067-068-072-073-078-083-087-091-280900-
SOUTHEAST ILLINOIS

CITY           SKY/WX    TMP DP  RH WIND       PRES   REMARKS
LAWRENCEVILLE  MOCLDY    22  20  92 CALM      30.44S
$$

ABBREVIATIONS USED IN REMARKS
   TC - TEMPERATURE IN CELSIUS
  WCI - WIND CHILL INDEX
   HX - HEAT INDEX
  VSB - VISIBILITY
$$




USA.gov is the U.S. government's official web portal to all federal, state and local government web resources and services.